Regional Weather Roundup
Issued by NWS Grand Forks, ND

Home | Current Version | Previous Version | Text Only | Print | Product List | Glossary On
Versions: 1 2 3 4 5 6 7 8 9 10 11 12 13 14 15 16 17 18 19 20 21 22 23 24 25 26 27 28 29 30 31 32 33 34 35 36 37 38 39 40 41 42 43 44 45 46 47 48 49 50
000
ASUS43 KFGF 031131
RWRFGF
PRAIRIE TO PINES  WEATHER ROUNDUP
NATIONAL WEATHER SERVICE EASTERN NORTH DAKOTA/GRAND FORKS ND
600 AM CDT TUE MAY 03 2016

 **SATELLITE DATA USED TO AUGMENT SKY COVER AT AUTOMATED STATIONS**
 *****  WEATHER ACROSS EASTERN NORTH DAKOTA  *****

CITY           SKY/WX    TMP DP  RH WIND       PRES   REMARKS
GRAND FORKS    CLOUDY    50  38  63 W13       29.87F
GRAND FRKS AFB PTCLDY    50  39  65 W13       29.87F
DEVILS LAKE    CLOUDY    45  40  82 SW7       29.92F
FARGO          CLOUDY    47  38  71 SW10      29.92F
WAHPETON ARPT  MOSUNNY   41  34  75 W7        29.96S
$$

 ***** WEATHER ACROSS CENTRAL AND WESTERN NORTH DAKOTA  *****

CITY           SKY/WX    TMP DP  RH WIND       PRES   REMARKS
BISMARCK       PTCLDY    42  40  92 W3        30.00S
MINOT          CLEAR     55  33  43 SW10      29.95S
JAMESTOWN      CLOUDY    42  39  89 CALM      29.95S
MINOT AFB      CLEAR     46  35  67 W10       29.94S
GARRISON         N/A     40  34  79 W5        29.98F
WILLISTON      CLEAR     37  32  82 N3        30.02S
DICKINSON      CLEAR     40  31  70 W5        30.01F
HETTINGER      PTCLDY    34  30  85 NW5       30.05F
$$

 *****  OTHER AIRPORT OBSERVATIONS IN OUR AREA  *****

CITY           SKY/WX    TMP DP  RH WIND       PRES   REMARKS
WALHALLA       FAIR      55  37  50 W15G22    29.85R
GRAFTON AIRPOR PTSUNNY   52  41  66 W16       29.87R
VALLEY CITY AR FAIR      43  43 100 W13       29.95F
CANDO          FAIR      41  37  87 W9        29.94S
CAVALIER APRT  FAIR      54  37  54 W18       29.84S
GWINNER        FAIR      39  37  93 SW8       29.97S
ROLLA          FAIR      52  34  50 W15       29.92S
 ***** THE ABOVE OBSERVATIONS ARE NON NWS ARE NOT QUALITY
       CONTROLLED AND MAY MIS-REPORT RAIN FOR SNOW...
$$

  *****  WEATHER ACROSS NORTHERN MINNESOTA  *****

CITY           SKY/WX    TMP DP  RH WIND       PRES   REMARKS
FLAG ISLAND    MOCLDY    54  37  54 W15       29.74F
WARROAD        MOCLDY    52  39  62 W13G20    29.79R
ROSEAU         CLOUDY    54  39  58 W10G16    29.79S
HALLOCK        MOCLDY    52  36  54 W12       29.82S
THF RVR FALLS  CLOUDY    50  34  53 SW14      29.85F
BAUDETTE       CLOUDY    53  35  50 W13       29.76F
WASKISH        PTCLDY    50  43  76 SW15      29.80F
CROOKSTON      CLEAR     48  37  66 W9        29.88S
STEPHEN NDAWN    N/A     52  39  62 W12         N/A
GREENBUSH NDAW   N/A     52  37  58 W13         N/A
$$
  *****  WEATHER ACROSS CENTRAL AND WEST MINNESOTA  *****

CITY           SKY/WX    TMP DP  RH WIND       PRES   REMARKS
FOSSTON        PTCLDY    46  34  61 SW8       29.89S
BEMIDJI        CLEAR     48  34  58 W10       29.86S
PARK RAPIDS    CLOUDY    43  35  73 W10       29.89F
ELBOW LAKE     FAIR      42  36  77 NW6       29.96S
WADENA         CLOUDY    43  36  75 W7        29.92S
DETROIT LAKES  CLOUDY    50  37  62 W8        29.93S
MOORHEAD       CLOUDY    45  36  70 SW6       29.93F
FERGUS FALLS   CLOUDY    41  36  81 CALM      29.94S
MORRIS MN      MOCLDY    43  37  81 W5        29.96S
STAPLES        PTCLDY    45  36  70 W8        29.91S
$$
  *****  WEATHER ELSEWHERE ACROSS MINNESOTA  *****

CITY           SKY/WX    TMP DP  RH WIND       PRES   REMARKS
DULUTH         CLOUDY    48  33  56 W13       29.82F
INTRNTL FALLS  CLOUDY    51  34  52 W10       29.74F
ELY            CLOUDY    48  32  53 SW7       29.75F
CLOQUET        CLOUDY    50  30  46 W8        29.84F
WHEATON        CLOUDY    48  41  76 W5        29.99R
BRAINERD       CLOUDY    39  32  76 SW5       29.90F
HIBBING        CLOUDY    46  34  62 W6        29.81F
ALEXANDRIA     CLOUDY    45  37  73 W7        29.95F
SAINT CLOUD    PTCLDY    40  35  83 CALM      29.92F
MINNEAPOLIS    CLOUDY    49  37  63 SW3       29.94F
$$

  *****  WEATHER ACROSS SOUTH DAKOTA  *****

CITY           SKY/WX    TMP DP  RH WIND       PRES   REMARKS
SIOUX FALLS    PTCLDY    35  33  92 CALM      30.02S
BROOKINGS      CLEAR     36  35  96 S3        30.00F
WATERTOWN      CLEAR     38  36  92 CALM      29.99F
HURON          CLEAR     38  38 100 CALM      30.01F
SISSETON         N/A     46  38  73 NW3       29.97S
ABERDEEN       CLEAR     34  32  92 SW7       29.99S
MITCHELL       CLEAR     44  42  93 SW5       30.03S
PIERRE         PTCLDY    38  37  97 W6        30.02F
MOBRIDGE       PTCLDY    37  36  96 CALM      29.98F FOG
RAPID CITY     CLEAR     41  33  73 NW10      30.07S
$$

  *****  SOME WEATHER IN NEARBY STATES *****

CITY           SKY/WX    TMP DP  RH WIND       PRES   REMARKS
GLASGOW MT     CLEAR     45  36  70 CALM      30.05R
GREAT FALLS MT CLEAR     40  33  76 S5        30.10S
CHEYENNE WY    CLEAR     41  28  60 NW13G21   30.16S
SCOTTSBLUFF NE CLEAR     37  33  85 W7        30.11R
OMAHA NE       PTCLDY    44  41  89 SE5       30.04F
DES MOINES IA  PTCLDY    46  40  79 W3        30.04S
DAVENPORT IA   CLEAR     40  38  93 W7        30.01S
CHICAGO IL     PTCLDY    41  34  76 W3        29.96S
EAU CLAIRE WI  CLEAR     41  38  89 SW3       29.92F
LA CROSSE WI   CLEAR     44  39  82 S6        29.96F
$$

  *****  SOME NATIONAL WEATHER *****

CITY           SKY/WX    TMP DP  RH WIND       PRES   REMARKS
LA GUARDIA NY  LGT RAIN  53  50  89 E8        29.87F
RALEIGH NC     LGT RAIN  64  63  96 CALM      29.84F FOG
ATLANTA GA     MOCLDY    65  62  90 W7        29.90R
NEW ORLEANS LA CLOUDY    70  67  90 N10       29.92R
OKLAHOMA CITY  PTCLDY    41  39  93 CALM      30.09R
ALBUQUERQUE NM PTCLDY    49  38  65 NW5       30.16R
SALT LAKE CITY CLEAR     48  35  60 SE7       30.20R
LOS ANGELES CA CLEAR     58  54  86 SW3       29.95F
BOISE ID       CLEAR     53  31  42 E6        30.10S
SEATTLE WA     MOCLDY    58  50  75 S3        30.00R
$$

*** WEATHER ACROSS MANITOBA...SASKATCHEWAN AND ONTARIO ***
                ***ONTARIO***

CITY           SKY/WX    TMP DP  RH WIND       PRES   REMARKS
GERALDTON      CLOUDY    48  32  53 S8        29.62F
THUNDER BAY    CLOUDY    39  36  87 CALM      29.69F
SIOUX LOOKOUT  PTCLDY    43  39  87 NW2       29.65F
TORONTO        PTCLDY    45  37  76 N2        29.93S
BIG TROUT LK   LGT RAIN  34  32  93 NW10G18   29.65R
PICKLE LAKE    PTCLDY    41  37  87 NW7       29.62
DRYDEN         CLOUDY    50  37  62 W8        29.68R
KENORA         MOCLDY    52  37  58 NW10      29.74R
$$
                *** MANITOBA***

CITY           SKY/WX    TMP DP  RH WIND       PRES   REMARKS
BRANDON        PTCLDY    45  34  65 N7        29.93R
DAUPHIN        CLEAR     46  30  53 NW9       29.97R
ISLAND LAKE    MOCLDY    37  30  75 N12G26    29.86R
PILOT MOUND      N/A     46  36  66 NW12        N/A
THE PAS        PTCLDY    41  30  65 N10       30.04R
THOMPSON       MOCLDY    37  30  75 N13G23    29.99
WINNIPEG       PTCLDY    48  37  66 N13       29.84R
LYNN LAKE      CLOUDY    32  28  86 NW5       30.07R
CHURCHILL      FLURRIES  28  25  86 N22G29    30.01R WCI  15
GILLAM         FLURRIES  30  28  93 N16G25    29.95R WCI  19
$$
                ***SASKATCHEWAN***

CITY           SKY/WX    TMP DP  RH WIND       PRES   REMARKS
ESTEVAN        PTCLDY    41  32  70 NW10      29.99S
KINDERSLEY     PTCLDY    46  37  71 SW2       30.02R
LLOYDMINSTER   CLEAR     54  39  58 SW8       30.00R
PRINCE ALBERT  PTCLDY    39  36  87 E5        30.05R
REGINA         PTCLDY    45  30  57 NW3       30.02R
YORKTON        CLEAR     43  34  70 NW7       30.01R
N. BATTLEFORD  CLEAR     46  37  71 NW3       30.03R
LA RONGE       PTCLDY    39  28  65 NE6       30.08R
SASKATOON      MOCLDY    45  39  81 E5        30.03S
SWIFT CURRENT  CLEAR     50  37  62 SW12      30.04R
$$
NOTE: THESE ARE AUTOMATED STATIONS WITH LIMITED QUALITY CONTROL
      "FAIR" INDICATES FEW OR NO CLOUDS BELOW 12,000 FEET WITH NO
      SIGNIFICANT WEATHER AND/OR OBSTRUCTIONS TO VISIBILITY.
      SKY/WX - SKY CONDITION AND SIGNIFICANT WEATHER.
      TMP - AIR TEMPERATURE.    DP   - DEWPOINT TEMPERATURE.
      RH  - RELATIVE HUMIDITY.  PRES - PRESSURE.
      HX  - HEAT INDEX.         WCI  - WIND CHILL INDEX.
$




USA.gov is the U.S. government's official web portal to all federal, state and local government web resources and services.